This demonstration page uses our WeatherBlox Daily Observations layout. Learn more.

Left ArrowRight Arrow

39.01783, -85.05884

Hourly Observations for February 3, 2017

Temp ( °F °C ) Dew Point ( °F °C ) Humidity (%) Winds ( mph kmh ) Pressure ( in mb ) Visibility ( mi km ) Precip ( " mm )
12:52 am 00:52 Cloudy 25 -3.9 11 -11.7 55 55 NNW 6 9 30.34 1028 10 16 0.00 0.00
1:52 am 01:52 Cloudy 24 -4.4 12 -11.1 60 60 NW 5 7 30.34 1027 10 16 0.00 0.00
2:52 am 02:52 Cloudy 25 -3.9 13 -10.6 60 60 NNW 8 13 30.33 1027 10 16 0.00 0.00
3:52 am 03:52 Cloudy 24 -4.4 13 -10.6 62 62 NNW 9 15 30.35 1028 10 16 0.00 0.00
4:52 am 04:52 Cloudy 24 -4.4 13 -10.6 62 62 NNW 12 19 30.34 1028 10 16 0.00 0.00
5:52 am 05:52 Cloudy 23 -5 13 -10.6 65 65 NNW 9 15 30.35 1028 10 16 0.00 0.00
6:52 am 06:52 Mostly Cloudy 22 -5.6 13 -10.6 68 68 NNW 6 9 30.37 1029 10 16 0.00 0.00
7:52 am 07:52 Cloudy 22 -5.6 9 -12.8 57 57 NNW 7 11 30.38 1029 10 16 0.00 0.00
8:52 am 08:52 Mostly Cloudy 23 -5 10 -12.2 57 57 WNW 6 9 30.40 1029 10 16 0.00 0.00
9:52 am 09:52 Cloudy 24 -4.4 10 -12.2 55 55 NW 10 17 30.41 1030 10 16 0.00 0.00
10:52 am 10:52 Cloudy 25 -3.9 11 -11.7 55 55 VRB 5 7 30.41 1030 10 16 0.00 0.00
11:52 am 11:52 Cloudy 27 -2.8 11 -11.7 51 51 WNW 12 19 30.42 1030 10 16 0.00 0.00
12:52 pm 12:52 Cloudy 27 -2.8 9 -12.8 46 46 WNW 16 26 30.41 1030 10 16 0.00 0.00
1:52 pm 13:52 Cloudy 27 -2.8 9 -12.8 46 46 NW 17 28 30.42 1030 10 16 0.00 0.00
2:52 pm 14:52 Mostly Sunny 27 -2.8 9 -12.8 46 46 NW 10 17 30.42 1030 10 16 0.00 0.00
3:52 pm 15:52 Mostly Sunny 28 -2.2 7 -13.9 41 41 NW 12 19 30.42 1030 10 16 0.00 0.00
4:52 pm 16:52 Sunny 28 -2.2 5 -15 37 37 NW 14 22 30.45 1031 10 16 0.00 0.00
5:52 pm 17:52 Sunny 26 -3.3 5 -15 40 40 WNW 9 15 30.47 1032 10 16 0.00 0.00
6:52 pm 18:52 Clear 23 -5 5 -15 46 46 WNW 7 11 30.49 1033 10 16 0.00 0.00
7:52 pm 19:52 Clear 22 -5.6 5 -15 48 48 WNW 7 11 30.51 1033 10 16 0.00 0.00
8:52 pm 20:52 Clear 22 -5.6 6 -14.4 50 50 WNW 3 6 30.52 1033 10 16 0.00 0.00
9:52 pm 21:52 Clear 18 -7.8 7 -13.9 62 62 W 5 7 30.52 1034 10 16 0.00 0.00
10:52 pm 22:52 Clear 17 -8.3 6 -14.4 62 62 WSW 3 6 30.52 1034 10 16 0.00 0.00
11:52 pm 23:52 Clear 15 -9.4 8 -13.3 74 74 SW 5 7 30.52 1034 10 16 0.00 0.00

Powered by AerisWeather